Tracking 23645 objects as of 21-Sep-2021
HD Live streaming from Space Station
objects crossing your sky now

STARLINK-1926

Track STARLINK-1926 now!
10-day predictions
STARLINK-1926 is classified as:


NORAD ID: 46757
Int'l Code: 2020-074U
Perigee: 553.0 km
Apogee: 555.7 km
Inclination: 53.1 °
Period: 95.6 minutes
Semi major axis: 6925 km
RCS: Unknown
Launch date: October 24, 2020
Source: United States (US)
Launch site: AIR FORCE EASTERN TEST RANGE (AFETR)
aabbcc
Your satellite tracking list
Your tracking list is empty




NASA's NSSDC Master Catalog

Two Line Element Set (TLE):
1 46757U 20074U   21264.22323202  .00001547  00000-0  12269-3 0  9993
2 46757  53.0549  86.0763 0001941  92.2774 267.8437 15.06406258 50855
Source of the keplerian elements: AFSPC